Overview Statistics Trail Chart Weather Telemetry Raw packets
 

This is the latest recevied weather packets stored in our database for station/object K6CED. If no packets are shown the sender has not sent any weather packets the latest 10 day(s).

<< 76 77 78 79 80 81 82 >>
Time Temp. Humidity Pressure Rain* Wind** Luminosity Snow
1788118533 32.22° C 42% 1015 hPa 0 mm - 809 W/m² -
1788118228 31.67° C 43% 1015 hPa 0 mm - 811 W/m² -
1788117924 32.22° C 43% 1015.3 hPa 0 mm - 818 W/m² -
1788117619 32.78° C 43% 1015.1 hPa 0 mm - 819 W/m² -
1788117313 32.22° C 43% 1015.4 hPa 0 mm - 820 W/m² -
1788117003 32.22° C 44% 1015.2 hPa 0 mm - 818 W/m² -
1788116698 32.22° C 45% 1015.2 hPa 0 mm - 816 W/m² -
1788116396 32.22° C 45% 1015.1 hPa 0 mm - 816 W/m² -
1788116092 32.22° C 46% 1015.3 hPa 0 mm - 815 W/m² -
1788115787 32.22° C 46% 1015.5 hPa 0 mm - 814 W/m² -
1788115487 32.22° C 46% 1015.4 hPa 0 mm - 808 W/m² -
1788115181 32.22° C 45% 1015.4 hPa 0 mm - 804 W/m² -
1788114876 31.11° C 48% 1015.3 hPa 0 mm - 796 W/m² -
1788114571 30.56° C 49% 1015.4 hPa 0 mm - 791 W/m² -
1788114267 31.67° C 47% 1015.4 hPa 0 mm - 784 W/m² -
1788113963 31.11° C 48% 1015.2 hPa 0 mm - 775 W/m² -
1788113653 30.56° C 51% 1015.6 hPa 0 mm - 772 W/m² -
1788113352 30.56° C 50% 1015.6 hPa 0 mm - 765 W/m² -
1788113047 30.56° C 50% 1015.4 hPa 0 mm - 756 W/m² -
1788112745 31.11° C 48% 1015.5 hPa 0 mm - 749 W/m² -
1788112440 30.56° C 49% 1015.7 hPa 0 mm - 741 W/m² -
1788112135 30.56° C 49% 1015.4 hPa 0 mm - 731 W/m² -
1788111831 30.56° C 48% 1015.6 hPa 0 mm - 722 W/m² -
1788111526 30° C 49% 1015.7 hPa 0 mm - 709 W/m² -
1788111221 30.56° C 49% 1015.5 hPa 0 mm - 698 W/m² -

* Rain latest hour (hover to see other rain measurements)
** Current wind speed in m/s (hover to see current wind gust speed)